iso_date,epoch_date,Year,Hour,Min,DOY,POS_DOY,Lat,Lon,BP,Ts,Ta,has_bp,has_ts,has_ta,BuoyID,Buoy_Type,Buoy_Owner,Logistics,Hemisphere
2013-08-12T21:00:00Z,1376341200,2013,21,0,224.875,-999.0,74.015,-150.0752,1023.0,0.9,-999.0,yes,yes,no,300234060456740,UPTEMPO,PSC-UPTEMPO,Louis,North
2013-08-12T21:10:04Z,1376341805,2013,21,10,224.882,-999.0,74.0166,-150.0793,1024.3,-0.95,-999.0,yes,yes,no,300234060456740,UPTEMPO,PSC-UPTEMPO,Louis,North
2013-08-12T21:20:09Z,1376342410,2013,21,20,224.889,-999.0,74.0179,-150.0803,1024.3,-0.96,-999.0,yes,yes,no,300234060456740,UPTEMPO,PSC-UPTEMPO,Louis,North
2013-08-12T21:30:14Z,1376343014,2013,21,30,224.896,-999.0,74.0178,-150.0843,1024.3,-0.95,-999.0,yes,yes,no,300234060456740,UPTEMPO,PSC-UPTEMPO,Louis,North
2013-08-12T21:40:19Z,1376343619,2013,21,40,224.903,-999.0,74.0182,-150.0862,1024.3,-0.95,-999.0,yes,yes,no,300234060456740,UPTEMPO,PSC-UPTEMPO,Louis,North
2013-08-12T21:50:24Z,1376344224,2013,21,50,224.91,-999.0,74.0186,-150.0895,1024.3,-0.94,-999.0,yes,yes,no,300234060456740,UPTEMPO,PSC-UPTEMPO,Louis,North
2013-08-12T22:00:28Z,1376344829,2013,22,0,224.917,-999.0,74.0189,-150.0912,1024.2,-0.94,-999.0,yes,yes,no,300234060456740,UPTEMPO,PSC-UPTEMPO,Louis,North
2013-08-12T22:10:33Z,1376345434,2013,22,10,224.924,-999.0,74.0191,-150.0929,1024.2,-0.94,-999.0,yes,yes,no,300234060456740,UPTEMPO,PSC-UPTEMPO,Louis,North
2013-08-12T22:19:12Z,1376345952,2013,22,20,224.93,-999.0,74.0195,-150.095,1024.2,-0.94,-999.0,yes,yes,no,300234060456740,UPTEMPO,PSC-UPTEMPO,Louis,North
2013-08-12T22:30:43Z,1376346643,2013,22,30,224.938,-999.0,74.02,-150.097,1024.1,-0.95,-999.0,yes,yes,no,300234060456740,UPTEMPO,PSC-UPTEMPO,Louis,North
2013-08-12T22:40:48Z,1376347248,2013,22,40,224.945,-999.0,74.0201,-150.0985,1024.1,-0.94,-999.0,yes,yes,no,300234060456740,UPTEMPO,PSC-UPTEMPO,Louis,North
2013-08-12T22:59:31Z,1376348371,2013,23,0,224.958,-999.0,74.0205,-150.1016,1024.0,-0.95,-999.0,yes,yes,no,300234060456740,UPTEMPO,PSC-UPTEMPO,Louis,North
2013-08-13T00:00:00Z,1376352000,2013,0,0,225.0,-999.0,74.0222,-150.1141,1023.7,-0.94,-999.0,yes,yes,no,300234060456740,UPTEMPO,PSC-UPTEMPO,Louis,North
2013-08-13T01:00:28Z,1376355629,2013,1,0,225.042,-999.0,74.0292,-150.1331,1023.4,-1.06,-999.0,yes,yes,no,300234060456740,UPTEMPO,PSC-UPTEMPO,Louis,North
2013-08-13T01:59:31Z,1376359171,2013,2,0,225.083,-999.0,74.0365,-150.1526,1022.9,-1.09,-999.0,yes,yes,no,300234060456740,UPTEMPO,PSC-UPTEMPO,Louis,North
2013-08-13T03:00:00Z,1376362800,2013,3,0,225.125,-999.0,74.042,-150.1696,1022.5,-1.04,-999.0,yes,yes,no,300234060456740,UPTEMPO,PSC-UPTEMPO,Louis,North
2013-08-13T04:00:28Z,1376366429,2013,4,0,225.167,-999.0,74.0457,-150.1883,1022.4,-0.95,-999.0,yes,yes,no,300234060456740,UPTEMPO,PSC-UPTEMPO,Louis,North
2013-08-13T04:59:31Z,1376369971,2013,5,0,225.208,-999.0,74.0494,-150.2075,1022.1,-0.89,-999.0,yes,yes,no,300234060456740,UPTEMPO,PSC-UPTEMPO,Louis,North
2013-08-13T06:00:00Z,1376373600,2013,6,0,225.25,-999.0,74.0529,-150.2288,1022.0,-0.91,-999.0,yes,yes,no,300234060456740,UPTEMPO,PSC-UPTEMPO,Louis,North
2013-08-13T07:00:28Z,1376377229,2013,7,0,225.292,-999.0,74.0557,-150.2565,1021.6,-0.95,-999.0,yes,yes,no,300234060456740,UPTEMPO,PSC-UPTEMPO,Louis,North
2013-08-13T07:59:31Z,1376380771,2013,8,0,225.333,-999.0,74.0586,-150.2931,1021.3,-1.03,-999.0,yes,yes,no,300234060456740,UPTEMPO,PSC-UPTEMPO,Louis,North
2013-08-13T09:00:00Z,1376384400,2013,9,0,225.375,-999.0,74.0643,-150.3252,1020.9,-1.06,-999.0,yes,yes,no,300234060456740,UPTEMPO,PSC-UPTEMPO,Louis,North
2013-08-13T10:00:28Z,1376388029,2013,10,0,225.417,-999.0,74.071,-150.3544,1020.5,-1.02,-999.0,yes,yes,no,300234060456740,UPTEMPO,PSC-UPTEMPO,Louis,North
2013-08-13T10:59:31Z,1376391571,2013,11,0,225.458,-999.0,74.0795,-150.3787,1020.0,-1.0,-999.0,yes,yes,no,300234060456740,UPTEMPO,PSC-UPTEMPO,Louis,North
2013-08-13T12:00:00Z,1376395200,2013,12,0,225.5,-999.0,74.0901,-150.3915,1019.6,-1.0,-999.0,yes,yes,no,300234060456740,UPTEMPO,PSC-UPTEMPO,Louis,North
2013-08-13T13:00:28Z,1376398829,2013,13,0,225.542,-999.0,74.0996,-150.3916,1019.2,-1.03,-999.0,yes,yes,no,300234060456740,UPTEMPO,PSC-UPTEMPO,Louis,North
2013-08-13T13:59:31Z,1376402371,2013,14,0,225.583,-999.0,74.1079,-150.3863,1018.7,-1.03,-999.0,yes,yes,no,300234060456740,UPTEMPO,PSC-UPTEMPO,Louis,North
2013-08-13T15:00:00Z,1376406000,2013,15,0,225.625,-999.0,74.115,-150.3743,1018.4,-1.04,-999.0,yes,yes,no,300234060456740,UPTEMPO,PSC-UPTEMPO,Louis,North
2013-08-13T16:00:28Z,1376409629,2013,16,0,225.667,-999.0,74.1208,-150.3595,1018.3,-1.04,-999.0,yes,yes,no,300234060456740,UPTEMPO,PSC-UPTEMPO,Louis,North
2013-08-13T16:59:31Z,1376413171,2013,17,0,225.708,-999.0,74.1261,-150.3479,1018.2,-1.03,-999.0,yes,yes,no,300234060456740,UPTEMPO,PSC-UPTEMPO,Louis,North
2013-08-13T18:00:00Z,1376416800,2013,18,0,225.75,-999.0,74.1309,-150.3373,1018.0,-1.03,-999.0,yes,yes,no,300234060456740,UPTEMPO,PSC-UPTEMPO,Louis,North
2013-08-13T19:00:28Z,1376420429,2013,19,0,225.792,-999.0,74.1349,-150.3305,1017.8,-1.1,-999.0,yes,yes,no,300234060456740,UPTEMPO,PSC-UPTEMPO,Louis,North
2013-08-13T19:59:31Z,1376423971,2013,20,0,225.833,-999.0,74.1394,-150.3316,1017.5,-1.16,-999.0,yes,yes,no,300234060456740,UPTEMPO,PSC-UPTEMPO,Louis,North
2013-08-13T21:00:00Z,1376427600,2013,21,0,225.875,-999.0,74.1448,-150.335,1017.5,-1.15,-999.0,yes,yes,no,300234060456740,UPTEMPO,PSC-UPTEMPO,Louis,North
2013-08-13T22:00:28Z,1376431229,2013,22,0,225.917,-999.0,74.1518,-150.3391,1017.2,-1.1,-999.0,yes,yes,no,300234060456740,UPTEMPO,PSC-UPTEMPO,Louis,North
2013-08-13T22:59:31Z,1376434771,2013,23,0,225.958,-999.0,74.1589,-150.3371,1017.0,-0.79,-999.0,yes,yes,no,300234060456740,UPTEMPO,PSC-UPTEMPO,Louis,North
2013-08-14T00:00:00Z,1376438400,2013,0,0,226.0,-999.0,74.1674,-150.3301,1016.8,-0.81,-999.0,yes,yes,no,300234060456740,UPTEMPO,PSC-UPTEMPO,Louis,North
2013-08-14T01:00:28Z,1376442029,2013,1,0,226.042,-999.0,74.1755,-150.3177,1016.4,-0.82,-999.0,yes,yes,no,300234060456740,UPTEMPO,PSC-UPTEMPO,Louis,North
2013-08-14T01:59:31Z,1376445571,2013,2,0,226.083,-999.0,74.1826,-150.3009,1016.3,-0.9,-999.0,yes,yes,no,300234060456740,UPTEMPO,PSC-UPTEMPO,Louis,North
2013-08-14T03:00:00Z,1376449200,2013,3,0,226.125,-999.0,74.1878,-150.2816,1016.0,-0.94,-999.0,yes,yes,no,300234060456740,UPTEMPO,PSC-UPTEMPO,Louis,North
2013-08-14T04:00:28Z,1376452829,2013,4,0,226.167,-999.0,74.1919,-150.2664,1016.0,-0.95,-999.0,yes,yes,no,300234060456740,UPTEMPO,PSC-UPTEMPO,Louis,North
2013-08-14T04:59:31Z,1376456371,2013,5,0,226.208,-999.0,74.1949,-150.2523,1015.6,-0.96,-999.0,yes,yes,no,300234060456740,UPTEMPO,PSC-UPTEMPO,Louis,North
2013-08-14T06:00:00Z,1376460000,2013,6,0,226.25,-999.0,74.1961,-150.2404,1015.7,-0.9,-999.0,yes,yes,no,300234060456740,UPTEMPO,PSC-UPTEMPO,Louis,North
2013-08-14T07:00:28Z,1376463629,2013,7,0,226.292,-999.0,74.1972,-150.2326,1015.7,-0.91,-999.0,yes,yes,no,300234060456740,UPTEMPO,PSC-UPTEMPO,Louis,North
2013-08-14T07:59:31Z,1376467171,2013,8,0,226.333,-999.0,74.1985,-150.2312,1015.8,-0.9,-999.0,yes,yes,no,300234060456740,UPTEMPO,PSC-UPTEMPO,Louis,North
2013-08-14T09:00:00Z,1376470800,2013,9,0,226.375,-999.0,74.2007,-150.2335,1015.7,-0.93,-999.0,yes,yes,no,300234060456740,UPTEMPO,PSC-UPTEMPO,Louis,North
2013-08-14T10:00:28Z,1376474429,2013,10,0,226.417,-999.0,74.205,-150.2338,1015.6,-0.89,-999.0,yes,yes,no,300234060456740,UPTEMPO,PSC-UPTEMPO,Louis,North
2013-08-14T10:59:31Z,1376477971,2013,11,0,226.458,-999.0,74.2102,-150.2308,1015.6,-1.03,-999.0,yes,yes,no,300234060456740,UPTEMPO,PSC-UPTEMPO,Louis,North
2013-08-14T12:00:00Z,1376481600,2013,12,0,226.5,-999.0,74.2167,-150.2277,1015.3,-1.03,-999.0,yes,yes,no,300234060456740,UPTEMPO,PSC-UPTEMPO,Louis,North
2013-08-14T13:00:28Z,1376485229,2013,13,0,226.542,-999.0,74.2223,-150.2232,1015.3,-1.1,-999.0,yes,yes,no,300234060456740,UPTEMPO,PSC-UPTEMPO,Louis,North
2013-08-14T13:59:31Z,1376488771,2013,14,0,226.583,-999.0,74.2281,-150.2171,1015.5,-1.04,-999.0,yes,yes,no,300234060456740,UPTEMPO,PSC-UPTEMPO,Louis,North
2013-08-14T15:00:00Z,1376492400,2013,15,0,226.625,-999.0,74.2339,-150.2111,1015.6,-1.06,-999.0,yes,yes,no,300234060456740,UPTEMPO,PSC-UPTEMPO,Louis,North
2013-08-14T16:00:28Z,1376496029,2013,16,0,226.667,-999.0,74.2385,-150.2062,1015.6,-0.92,-999.0,yes,yes,no,300234060456740,UPTEMPO,PSC-UPTEMPO,Louis,North
2013-08-14T16:59:31Z,1376499571,2013,17,0,226.708,-999.0,74.2425,-150.2073,1015.7,-0.85,-999.0,yes,yes,no,300234060456740,UPTEMPO,PSC-UPTEMPO,Louis,North
2013-08-14T18:00:00Z,1376503200,2013,18,0,226.75,-999.0,74.2464,-150.2116,1016.0,-0.83,-999.0,yes,yes,no,300234060456740,UPTEMPO,PSC-UPTEMPO,Louis,North
2013-08-14T19:00:28Z,1376506829,2013,19,0,226.792,-999.0,74.2501,-150.2165,1016.2,-0.85,-999.0,yes,yes,no,300234060456740,UPTEMPO,PSC-UPTEMPO,Louis,North
2013-08-14T19:59:31Z,1376510371,2013,20,0,226.833,-999.0,74.2521,-150.2223,1016.4,-0.86,-999.0,yes,yes,no,300234060456740,UPTEMPO,PSC-UPTEMPO,Louis,North
2013-08-14T21:00:00Z,1376514000,2013,21,0,226.875,-999.0,74.2559,-150.2264,1016.5,-0.77,-999.0,yes,yes,no,300234060456740,UPTEMPO,PSC-UPTEMPO,Louis,North
2013-08-14T22:00:28Z,1376517629,2013,22,0,226.917,-999.0,74.2581,-150.2407,1016.6,-0.82,-999.0,yes,yes,no,300234060456740,UPTEMPO,PSC-UPTEMPO,Louis,North
2013-08-14T22:59:31Z,1376521171,2013,23,0,226.958,-999.0,74.2628,-150.2589,1016.6,-0.79,-999.0,yes,yes,no,300234060456740,UPTEMPO,PSC-UPTEMPO,Louis,North
2013-08-15T00:00:00Z,1376524800,2013,0,0,227.0,-999.0,74.2693,-150.2734,1016.7,-0.8,-999.0,yes,yes,no,300234060456740,UPTEMPO,PSC-UPTEMPO,Louis,North
2013-08-15T01:00:28Z,1376528429,2013,1,0,227.042,-999.0,74.2762,-150.2816,1016.9,-0.69,-999.0,yes,yes,no,300234060456740,UPTEMPO,PSC-UPTEMPO,Louis,North
2013-08-15T01:59:31Z,1376531971,2013,2,0,227.083,-999.0,74.2831,-150.2856,1016.9,-0.8,-999.0,yes,yes,no,300234060456740,UPTEMPO,PSC-UPTEMPO,Louis,North
2013-08-15T03:00:00Z,1376535600,2013,3,0,227.125,-999.0,74.2886,-150.2862,1017.3,-0.79,-999.0,yes,yes,no,300234060456740,UPTEMPO,PSC-UPTEMPO,Louis,North
2013-08-15T04:00:28Z,1376539229,2013,4,0,227.167,-999.0,74.2931,-150.2864,1017.4,-0.8,-999.0,yes,yes,no,300234060456740,UPTEMPO,PSC-UPTEMPO,Louis,North
2013-08-15T04:59:31Z,1376542771,2013,5,0,227.208,-999.0,74.2963,-150.2872,1017.7,-0.86,-999.0,yes,yes,no,300234060456740,UPTEMPO,PSC-UPTEMPO,Louis,North
2013-08-15T06:00:00Z,1376546400,2013,6,0,227.25,-999.0,74.2985,-150.2934,1018.1,-0.91,-999.0,yes,yes,no,300234060456740,UPTEMPO,PSC-UPTEMPO,Louis,North
2013-08-15T07:00:28Z,1376550029,2013,7,0,227.292,-999.0,74.3001,-150.3026,1018.3,-1.03,-999.0,yes,yes,no,300234060456740,UPTEMPO,PSC-UPTEMPO,Louis,North
2013-08-15T07:59:31Z,1376553571,2013,8,0,227.333,-999.0,74.3014,-150.3142,1018.7,-1.05,-999.0,yes,yes,no,300234060456740,UPTEMPO,PSC-UPTEMPO,Louis,North
2013-08-15T09:00:00Z,1376557200,2013,9,0,227.375,-999.0,74.3024,-150.3287,1019.0,-1.07,-999.0,yes,yes,no,300234060456740,UPTEMPO,PSC-UPTEMPO,Louis,North
2013-08-15T10:00:28Z,1376560829,2013,10,0,227.417,-999.0,74.304,-150.346,1018.9,-1.04,-999.0,yes,yes,no,300234060456740,UPTEMPO,PSC-UPTEMPO,Louis,North
2013-08-15T10:59:31Z,1376564371,2013,11,0,227.458,-999.0,74.3069,-150.3638,1019.0,-0.96,-999.0,yes,yes,no,300234060456740,UPTEMPO,PSC-UPTEMPO,Louis,North
2013-08-15T12:00:00Z,1376568000,2013,12,0,227.5,-999.0,74.3114,-150.3786,1019.2,-1.09,-999.0,yes,yes,no,300234060456740,UPTEMPO,PSC-UPTEMPO,Louis,North
2013-08-15T13:00:28Z,1376571629,2013,13,0,227.542,-999.0,74.3154,-150.3887,1019.5,-0.87,-999.0,yes,yes,no,300234060456740,UPTEMPO,PSC-UPTEMPO,Louis,North
2013-08-15T13:59:31Z,1376575171,2013,14,0,227.583,-999.0,74.3188,-150.3965,1019.4,-1.01,-999.0,yes,yes,no,300234060456740,UPTEMPO,PSC-UPTEMPO,Louis,North
2013-08-15T15:00:00Z,1376578800,2013,15,0,227.625,-999.0,74.3212,-150.3997,1019.4,-1.03,-999.0,yes,yes,no,300234060456740,UPTEMPO,PSC-UPTEMPO,Louis,North
2013-08-15T16:00:28Z,1376582429,2013,16,0,227.667,-999.0,74.3226,-150.4025,1019.6,-1.11,-999.0,yes,yes,no,300234060456740,UPTEMPO,PSC-UPTEMPO,Louis,North
2013-08-15T16:59:31Z,1376585971,2013,17,0,227.708,-999.0,74.3229,-150.4066,1019.7,-1.06,-999.0,yes,yes,no,300234060456740,UPTEMPO,PSC-UPTEMPO,Louis,North
2013-08-15T18:00:00Z,1376589600,2013,18,0,227.75,-999.0,74.3226,-150.4119,1019.7,-1.08,-999.0,yes,yes,no,300234060456740,UPTEMPO,PSC-UPTEMPO,Louis,North
2013-08-15T19:00:28Z,1376593229,2013,19,0,227.792,-999.0,74.3213,-150.42,1019.8,-1.05,-999.0,yes,yes,no,300234060456740,UPTEMPO,PSC-UPTEMPO,Louis,North
2013-08-15T19:59:31Z,1376596771,2013,20,0,227.833,-999.0,74.3199,-150.4283,1019.9,-1.06,-999.0,yes,yes,no,300234060456740,UPTEMPO,PSC-UPTEMPO,Louis,North
2013-08-15T21:00:00Z,1376600400,2013,21,0,227.875,-999.0,74.3185,-150.4368,1019.9,-1.07,-999.0,yes,yes,no,300234060456740,UPTEMPO,PSC-UPTEMPO,Louis,North
2013-08-15T22:00:28Z,1376604029,2013,22,0,227.917,-999.0,74.3176,-150.4488,1019.9,-1.06,-999.0,yes,yes,no,300234060456740,UPTEMPO,PSC-UPTEMPO,Louis,North
2013-08-15T22:59:31Z,1376607571,2013,23,0,227.958,-999.0,74.3175,-150.4636,1019.7,-0.78,-999.0,yes,yes,no,300234060456740,UPTEMPO,PSC-UPTEMPO,Louis,North
2013-08-16T00:00:00Z,1376611200,2013,0,0,228.0,-999.0,74.3189,-150.474,1019.8,-0.71,-999.0,yes,yes,no,300234060456740,UPTEMPO,PSC-UPTEMPO,Louis,North
2013-08-16T01:00:28Z,1376614829,2013,1,0,228.042,-999.0,74.3205,-150.4783,1019.8,-0.85,-999.0,yes,yes,no,300234060456740,UPTEMPO,PSC-UPTEMPO,Louis,North
2013-08-16T01:59:31Z,1376618371,2013,2,0,228.083,-999.0,74.322,-150.4753,1019.5,-0.42,-999.0,yes,yes,no,300234060456740,UPTEMPO,PSC-UPTEMPO,Louis,North
2013-08-16T03:00:00Z,1376622000,2013,3,0,228.125,-999.0,74.3224,-150.4674,1019.3,-0.62,-999.0,yes,yes,no,300234060456740,UPTEMPO,PSC-UPTEMPO,Louis,North
2013-08-16T04:00:28Z,1376625629,2013,4,0,228.167,-999.0,74.3215,-150.4551,1019.2,-0.66,-999.0,yes,yes,no,300234060456740,UPTEMPO,PSC-UPTEMPO,Louis,North
2013-08-16T04:59:31Z,1376629171,2013,5,0,228.208,-999.0,74.319,-150.4415,1019.0,-0.45,-999.0,yes,yes,no,300234060456740,UPTEMPO,PSC-UPTEMPO,Louis,North
2013-08-16T06:00:00Z,1376632800,2013,6,0,228.25,-999.0,74.3154,-150.4306,1019.1,-0.4,-999.0,yes,yes,no,300234060456740,UPTEMPO,PSC-UPTEMPO,Louis,North
2013-08-16T07:00:28Z,1376636429,2013,7,0,228.292,-999.0,74.3118,-150.4222,1019.0,-0.52,-999.0,yes,yes,no,300234060456740,UPTEMPO,PSC-UPTEMPO,Louis,North
2013-08-16T07:59:31Z,1376639971,2013,8,0,228.333,-999.0,74.3089,-150.4156,1018.9,-0.59,-999.0,yes,yes,no,300234060456740,UPTEMPO,PSC-UPTEMPO,Louis,North
2013-08-16T09:00:00Z,1376643600,2013,9,0,228.375,-999.0,74.3072,-150.4106,1019.0,-0.57,-999.0,yes,yes,no,300234060456740,UPTEMPO,PSC-UPTEMPO,Louis,North
2013-08-16T10:00:28Z,1376647229,2013,10,0,228.417,-999.0,74.3067,-150.4095,1018.8,-0.61,-999.0,yes,yes,no,300234060456740,UPTEMPO,PSC-UPTEMPO,Louis,North
2013-08-16T10:59:31Z,1376650771,2013,11,0,228.458,-999.0,74.3076,-150.4103,1018.6,-0.74,-999.0,yes,yes,no,300234060456740,UPTEMPO,PSC-UPTEMPO,Louis,North
2013-08-16T12:00:00Z,1376654400,2013,12,0,228.5,-999.0,74.3095,-150.4119,1018.3,-0.67,-999.0,yes,yes,no,300234060456740,UPTEMPO,PSC-UPTEMPO,Louis,North
2013-08-16T13:00:28Z,1376658029,2013,13,0,228.542,-999.0,74.3119,-150.4108,1018.0,-0.7,-999.0,yes,yes,no,300234060456740,UPTEMPO,PSC-UPTEMPO,Louis,North
2013-08-16T13:59:31Z,1376661571,2013,14,0,228.583,-999.0,74.3146,-150.4075,1017.7,-0.78,-999.0,yes,yes,no,300234060456740,UPTEMPO,PSC-UPTEMPO,Louis,North
2013-08-16T15:00:00Z,1376665200,2013,15,0,228.625,-999.0,74.3173,-150.401,1017.6,-0.74,-999.0,yes,yes,no,300234060456740,UPTEMPO,PSC-UPTEMPO,Louis,North
2013-08-16T16:00:28Z,1376668829,2013,16,0,228.667,-999.0,74.3195,-150.3913,1017.5,-0.74,-999.0,yes,yes,no,300234060456740,UPTEMPO,PSC-UPTEMPO,Louis,North
2013-08-16T16:59:31Z,1376672371,2013,17,0,228.708,-999.0,74.321,-150.3795,1017.2,-0.69,-999.0,yes,yes,no,300234060456740,UPTEMPO,PSC-UPTEMPO,Louis,North
2013-08-16T18:00:00Z,1376676000,2013,18,0,228.75,-999.0,74.3215,-150.3666,1017.1,-0.69,-999.0,yes,yes,no,300234060456740,UPTEMPO,PSC-UPTEMPO,Louis,North
2013-08-16T19:00:28Z,1376679629,2013,19,0,228.792,-999.0,74.322,-150.3559,1016.7,-0.55,-999.0,yes,yes,no,300234060456740,UPTEMPO,PSC-UPTEMPO,Louis,North
2013-08-16T19:59:31Z,1376683171,2013,20,0,228.833,-999.0,74.3229,-150.3473,1016.7,-0.59,-999.0,yes,yes,no,300234060456740,UPTEMPO,PSC-UPTEMPO,Louis,North
2013-08-16T21:00:00Z,1376686800,2013,21,0,228.875,-999.0,74.3244,-150.34,1016.4,-0.6,-999.0,yes,yes,no,300234060456740,UPTEMPO,PSC-UPTEMPO,Louis,North
2013-08-16T22:00:28Z,1376690429,2013,22,0,228.917,-999.0,74.3268,-150.3352,1016.2,-0.58,-999.0,yes,yes,no,300234060456740,UPTEMPO,PSC-UPTEMPO,Louis,North
2013-08-16T22:59:31Z,1376693971,2013,23,0,228.958,-999.0,74.3297,-150.3298,1015.9,-0.61,-999.0,yes,yes,no,300234060456740,UPTEMPO,PSC-UPTEMPO,Louis,North
2013-08-17T00:00:00Z,1376697600,2013,0,0,229.0,-999.0,74.3327,-150.3255,1015.5,-0.35,-999.0,yes,yes,no,300234060456740,UPTEMPO,PSC-UPTEMPO,Louis,North
2013-08-17T01:00:28Z,1376701229,2013,1,0,229.042,-999.0,74.3359,-150.3191,1015.0,-0.37,-999.0,yes,yes,no,300234060456740,UPTEMPO,PSC-UPTEMPO,Louis,North
2013-08-17T01:59:31Z,1376704771,2013,2,0,229.083,-999.0,74.3396,-150.3107,1014.7,-0.48,-999.0,yes,yes,no,300234060456740,UPTEMPO,PSC-UPTEMPO,Louis,North
2013-08-17T03:00:00Z,1376708400,2013,3,0,229.125,-999.0,74.3444,-150.3025,1014.3,-0.49,-999.0,yes,yes,no,300234060456740,UPTEMPO,PSC-UPTEMPO,Louis,North
2013-08-17T04:00:28Z,1376712029,2013,4,0,229.167,-999.0,74.3498,-150.2928,1013.9,-0.58,-999.0,yes,yes,no,300234060456740,UPTEMPO,PSC-UPTEMPO,Louis,North
2013-08-17T04:59:31Z,1376715571,2013,5,0,229.208,-999.0,74.3559,-150.2834,1013.5,-0.59,-999.0,yes,yes,no,300234060456740,UPTEMPO,PSC-UPTEMPO,Louis,North
2013-08-17T06:00:00Z,1376719200,2013,6,0,229.25,-999.0,74.3619,-150.2741,1013.3,-0.63,-999.0,yes,yes,no,300234060456740,UPTEMPO,PSC-UPTEMPO,Louis,North
2013-08-17T07:00:28Z,1376722829,2013,7,0,229.292,-999.0,74.3669,-150.265,1013.0,-0.49,-999.0,yes,yes,no,300234060456740,UPTEMPO,PSC-UPTEMPO,Louis,North
2013-08-17T07:59:31Z,1376726371,2013,8,0,229.333,-999.0,74.37,-150.2632,1012.7,-0.31,-999.0,yes,yes,no,300234060456740,UPTEMPO,PSC-UPTEMPO,Louis,North
2013-08-17T09:00:00Z,1376730000,2013,9,0,229.375,-999.0,74.3752,-150.26,1012.6,-0.39,-999.0,yes,yes,no,300234060456740,UPTEMPO,PSC-UPTEMPO,Louis,North
2013-08-17T10:00:28Z,1376733629,2013,10,0,229.417,-999.0,74.381,-150.2616,1012.2,-0.68,-999.0,yes,yes,no,300234060456740,UPTEMPO,PSC-UPTEMPO,Louis,North
2013-08-17T10:59:31Z,1376737171,2013,11,0,229.458,-999.0,74.3868,-150.269,1011.8,-0.59,-999.0,yes,yes,no,300234060456740,UPTEMPO,PSC-UPTEMPO,Louis,North
2013-08-17T12:00:00Z,1376740800,2013,12,0,229.5,-999.0,74.3931,-150.2798,1011.5,-0.81,-999.0,yes,yes,no,300234060456740,UPTEMPO,PSC-UPTEMPO,Louis,North
2013-08-17T13:00:28Z,1376744429,2013,13,0,229.542,-999.0,74.4,-150.2894,1011.1,-0.62,-999.0,yes,yes,no,300234060456740,UPTEMPO,PSC-UPTEMPO,Louis,North
2013-08-17T13:59:31Z,1376747971,2013,14,0,229.583,-999.0,74.4068,-150.2982,1010.8,-0.58,-999.0,yes,yes,no,300234060456740,UPTEMPO,PSC-UPTEMPO,Louis,North
2013-08-17T15:00:00Z,1376751600,2013,15,0,229.625,-999.0,74.4124,-150.3049,1010.5,-0.59,-999.0,yes,yes,no,300234060456740,UPTEMPO,PSC-UPTEMPO,Louis,North
2013-08-17T16:00:28Z,1376755229,2013,16,0,229.667,-999.0,74.4151,-150.3099,1010.3,-0.63,-999.0,yes,yes,no,300234060456740,UPTEMPO,PSC-UPTEMPO,Louis,North
2013-08-17T16:59:31Z,1376758771,2013,17,0,229.708,-999.0,74.4156,-150.3139,1010.2,-0.71,-999.0,yes,yes,no,300234060456740,UPTEMPO,PSC-UPTEMPO,Louis,North
2013-08-17T18:00:00Z,1376762400,2013,18,0,229.75,-999.0,74.4136,-150.3199,1010.2,-0.62,-999.0,yes,yes,no,300234060456740,UPTEMPO,PSC-UPTEMPO,Louis,North
2013-08-17T19:00:28Z,1376766029,2013,19,0,229.792,-999.0,74.4102,-150.33,1010.1,-0.56,-999.0,yes,yes,no,300234060456740,UPTEMPO,PSC-UPTEMPO,Louis,North
2013-08-17T19:59:31Z,1376769571,2013,20,0,229.833,-999.0,74.407,-150.3461,1010.0,-0.5,-999.0,yes,yes,no,300234060456740,UPTEMPO,PSC-UPTEMPO,Louis,North
2013-08-17T21:00:00Z,1376773200,2013,21,0,229.875,-999.0,74.4037,-150.3667,1010.1,-0.52,-999.0,yes,yes,no,300234060456740,UPTEMPO,PSC-UPTEMPO,Louis,North
2013-08-17T22:00:28Z,1376776829,2013,22,0,229.917,-999.0,74.4009,-150.3863,1009.9,-0.56,-999.0,yes,yes,no,300234060456740,UPTEMPO,PSC-UPTEMPO,Louis,North
2013-08-17T22:59:31Z,1376780371,2013,23,0,229.958,-999.0,74.3982,-150.4035,1010.0,-0.62,-999.0,yes,yes,no,300234060456740,UPTEMPO,PSC-UPTEMPO,Louis,North
2013-08-18T00:00:00Z,1376784000,2013,0,0,230.0,-999.0,74.3959,-150.4203,1009.7,-0.64,-999.0,yes,yes,no,300234060456740,UPTEMPO,PSC-UPTEMPO,Louis,North
2013-08-18T01:00:28Z,1376787629,2013,1,0,230.042,-999.0,74.3943,-150.4331,1009.7,-0.6,-999.0,yes,yes,no,300234060456740,UPTEMPO,PSC-UPTEMPO,Louis,North
2013-08-18T01:59:31Z,1376791171,2013,2,0,230.083,-999.0,74.3929,-150.4404,1009.5,-0.5,-999.0,yes,yes,no,300234060456740,UPTEMPO,PSC-UPTEMPO,Louis,North
2013-08-18T03:00:00Z,1376794800,2013,3,0,230.125,-999.0,74.3922,-150.4446,1009.3,-0.41,-999.0,yes,yes,no,300234060456740,UPTEMPO,PSC-UPTEMPO,Louis,North
2013-08-18T04:00:28Z,1376798429,2013,4,0,230.167,-999.0,74.3915,-150.4438,1009.4,-0.59,-999.0,yes,yes,no,300234060456740,UPTEMPO,PSC-UPTEMPO,Louis,North
2013-08-18T04:59:31Z,1376801971,2013,5,0,230.208,-999.0,74.39,-150.4403,1009.5,-0.64,-999.0,yes,yes,no,300234060456740,UPTEMPO,PSC-UPTEMPO,Louis,North
2013-08-18T06:00:00Z,1376805600,2013,6,0,230.25,-999.0,74.3883,-150.4373,1009.5,-0.64,-999.0,yes,yes,no,300234060456740,UPTEMPO,PSC-UPTEMPO,Louis,North
2013-08-18T07:00:28Z,1376809229,2013,7,0,230.292,-999.0,74.3855,-150.4345,1009.5,-0.71,-999.0,yes,yes,no,300234060456740,UPTEMPO,PSC-UPTEMPO,Louis,North
2013-08-18T07:59:31Z,1376812771,2013,8,0,230.333,-999.0,74.3824,-150.4358,1009.6,-0.57,-999.0,yes,yes,no,300234060456740,UPTEMPO,PSC-UPTEMPO,Louis,North
2013-08-18T09:00:00Z,1376816400,2013,9,0,230.375,-999.0,74.3794,-150.4399,1009.8,-0.66,-999.0,yes,yes,no,300234060456740,UPTEMPO,PSC-UPTEMPO,Louis,North
2013-08-18T10:00:28Z,1376820029,2013,10,0,230.417,-999.0,74.3761,-150.4466,1009.7,-0.47,-999.0,yes,yes,no,300234060456740,UPTEMPO,PSC-UPTEMPO,Louis,North
2013-08-18T10:59:31Z,1376823571,2013,11,0,230.458,-999.0,74.3736,-150.4528,1009.8,-0.42,-999.0,yes,yes,no,300234060456740,UPTEMPO,PSC-UPTEMPO,Louis,North
2013-08-18T12:00:00Z,1376827200,2013,12,0,230.5,-999.0,74.3707,-150.4607,1009.9,-0.46,-999.0,yes,yes,no,300234060456740,UPTEMPO,PSC-UPTEMPO,Louis,North
2013-08-18T13:00:28Z,1376830829,2013,13,0,230.542,-999.0,74.3693,-150.4699,1010.1,-0.53,-999.0,yes,yes,no,300234060456740,UPTEMPO,PSC-UPTEMPO,Louis,North
2013-08-18T13:59:31Z,1376834371,2013,14,0,230.583,-999.0,74.3679,-150.4778,1010.2,-0.51,-999.0,yes,yes,no,300234060456740,UPTEMPO,PSC-UPTEMPO,Louis,North
2013-08-18T15:00:00Z,1376838000,2013,15,0,230.625,-999.0,74.3665,-150.4834,1010.3,-0.5,-999.0,yes,yes,no,300234060456740,UPTEMPO,PSC-UPTEMPO,Louis,North
2013-08-18T16:00:28Z,1376841629,2013,16,0,230.667,-999.0,74.3655,-150.4858,1010.4,-0.54,-999.0,yes,yes,no,300234060456740,UPTEMPO,PSC-UPTEMPO,Louis,North
2013-08-18T16:59:31Z,1376845171,2013,17,0,230.708,-999.0,74.3651,-150.4811,1010.7,-0.56,-999.0,yes,yes,no,300234060456740,UPTEMPO,PSC-UPTEMPO,Louis,North
2013-08-18T18:00:00Z,1376848800,2013,18,0,230.75,-999.0,74.3648,-150.4728,1010.9,-0.52,-999.0,yes,yes,no,300234060456740,UPTEMPO,PSC-UPTEMPO,Louis,North
2013-08-18T19:00:28Z,1376852429,2013,19,0,230.792,-999.0,74.3642,-150.4705,1011.2,-0.54,-999.0,yes,yes,no,300234060456740,UPTEMPO,PSC-UPTEMPO,Louis,North
2013-08-18T19:59:31Z,1376855971,2013,20,0,230.833,-999.0,74.3614,-150.4758,1011.6,-0.59,-999.0,yes,yes,no,300234060456740,UPTEMPO,PSC-UPTEMPO,Louis,North
2013-08-18T21:00:00Z,1376859600,2013,21,0,230.875,-999.0,74.3577,-150.4938,1011.9,-0.56,-999.0,yes,yes,no,300234060456740,UPTEMPO,PSC-UPTEMPO,Louis,North
2013-08-18T22:00:28Z,1376863229,2013,22,0,230.917,-999.0,74.3546,-150.5176,1012.3,-0.58,-999.0,yes,yes,no,300234060456740,UPTEMPO,PSC-UPTEMPO,Louis,North